Notices

What's New in latest Release from April 7th, 2021:

- Updated Glossary, including Speed of Maximum Gust, and Total Hourly Precipitation

- Updated national and regional climate services offices contacts and prices information

- Addition of station inventory lists for 1981-2010, 1971-2000, and 1961-1990 Normals.

If you haven't already, please take our survey and provide feedback about our website: https://eccc.sondage-survey.ca/f/LanguageSelection.aspx?s=442ca660-fcf1-47c0-95a9-59707d6fd709

Hourly Data Report for December 25, 2020

FORT GOOD HOPE CS
NORTHWEST TERRITORIES
Current Station Operator: ECCC - MSC

66°14'32.044" N
128°38'39.081" W
81.70 m
2201450
71491
ZGH

Download Data

Hourly Data (December 2020)
Hourly Data Report for December 25, 2020
TIME
LST
Temp Definition
°C
Dew Point Definition
°C
Rel Hum Definition
%
Precip. Amount Definition
mm

Wind Dir Definition
10's deg

Wind Spd Definition
km/h
Visibility Definition
km
Stn Press Definition
kPa
Hmdx Definition


Wind Chill Definition


Weather Definition


00:00 -9.0 -11.2 84 0.0 27 12   99.79   -15 LegendNANA
01:00 -11.0 -13.0 85 0.0 26 6   99.89   -15 LegendNANA
02:00 -9.5 -10.9 90 0.0 24 2   99.95   -11 LegendNANA
03:00 -12.2 -13.8 88 0.0 35 2   100.00   -13 LegendNANA
04:00 -13.8 -15.3 88 0.0 30 3   100.08   -16 LegendNANA
05:00 -14.3 -15.8 88 0.0 21 5   100.12   -18 LegendNANA
06:00 -17.4 -19.9 81 0.0 20 6   100.13   -22 LegendNANA
07:00 -15.6 -17.2 87 0.0 21 7   100.14   -21 LegendNANA
08:00 -16.2 -17.9 86 0.0 19 2   100.13   -18 LegendNANA
09:00 -18.3 -20.3 84 0.0 9 2   100.14   -20 LegendNANA
10:00 -18.8 -21.0 83 0.0 0 1   100.16   -20 LegendNANA
11:00 -20.0 -22.3 82 0.0   0   100.16     LegendNANA
12:00 -19.7 -22.0 82 0.0 2 2   100.19   -21 LegendNANA
13:00 -19.4 -21.6 83 0.0   0   100.19     LegendNANA
14:00 -22.1 -24.6 80 0.0   0   100.22     LegendNANA
15:00 -20.6 -23.0 81 0.0   0   100.25     LegendNANA
16:00 -20.0 -22.3 82 0.0   0   100.24     LegendNANA
17:00 -22.9 -25.4 80 0.0   0   100.23     LegendNANA
18:00 -23.4 -26.1 78 0.0   0   100.22     LegendNANA
19:00 -24.9 -27.6 79 0.0   0   100.21     LegendNANA
20:00 -24.4 -27.2 78 0.0   0   100.19     LegendNANA
21:00 -25.2 -27.9 78 0.0   0   100.17     LegendNANA
22:00 -25.4 -28.2 78 0.0 10 2   100.13   -27 LegendNANA
23:00 -24.5 -27.2 78 0.0 10 2   100.10   -26 LegendNANA

Notes on Data Quality.

Legend

  • E = Estimated
  • M = Missing
  • NA = Not Available*
  • [empty] = Indicates an unobserved value
Date modified: